Torna al catalogo

SL-6 R/B(2)

AttivoHEO
NORAD 14191·ROCKET BODY·🇷🇺 Russia

Lanciato Jul 8, 1983 da Plesetsk Cosmodrome

Loading…

Prossimi Passaggi (prossime 24 ore)

TLE

AggiornatoSource: Space-Track

Epoca: Sep 11, 2026, 17:19 UTC

1 14191U 83070D   26254.72197968  .00000783  00000-0  00000-0 0  9990
2 14191  70.6236 250.4109 5536898 244.2008  49.6994  2.03388950241250

Traccia SL-6 R/B(2) in tempo reale con AllMySat

Download on the App Store